Terminal Aerodrome Forecast
Issued by NWS

Home | Current Version | Previous Version | Text Only | Print | Product List | Glossary On
Versions: 1 2 3 4 5 6 7 8 9 10 11 12 13 14 15
000
FTUS44 KHGX 252324
TAFLBX
TAF
KLBX 252324Z 2600/2624 15004KT P6SM SKC
     FM260600 00000KT 5SM BR SKC
      TEMPO 2609/2613 1 1/2SM BR
     FM261700 17008KT P6SM SKC=

USA.gov is the U.S. government's official web portal to all federal, state and local government web resources and services.